Regional Weather Roundup
Issued by NWS

Home | Current Version | Previous Version | Text Only | Print | Product List | Glossary On
Versions: 1 2 3 4 5 6 7 8 9 10 11 12 13 14 15 16 17 18 19 20 21 22 23 24 25 26 27 28 29 30 31 32 33 34 35 36 37 38 39 40 41 42 43 44 45 46 47 48 49 50
000
ASUS43 KDMX 300303
RWRIA

WEATHER ROUNDUP FOR IOWA
NATIONAL WEATHER SERVICE DES MOINES IA
1000 PM CDT MON AUG 29 2016

NOTE: "FAIR" INDICATES FEW OR NO CLOUDS BELOW 12,000 FEET WITH NO
SIGNIFICANT WEATHER AND/OR OBSTRUCTIONS TO VISIBILITY.

* - THESE STATIONS ARE NOT NWS STATIONS...THUS NOT UNDER NWS
QUALITY CONTROL.  THEY ALSO DO NOT REPORT WEATHER SUCH
AS PRECIPITATION OR FOG.

IAZ001>003-012>014-020>022-031>034-043>046-300400-
   NORTHWEST IOWA

CITY           SKY/WX    TMP DP  RH WIND       PRES   REMARKS
CARROLL *      CLOUDY    70  70 100 CALM      30.20R
CHEROKEE *     CLOUDY    73  69  88 S5        30.19R
DENISON *      CLOUDY    68  68 100 W7        30.19R
LE MARS *      CLOUDY    73  68  83 S12G20    30.20R
ORANGE CITY *  CLOUDY    75  72  88 S6        30.20R
SHELDON *      CLOUDY    72  72 100 CALM      30.18R
SIOUX CITY     TSTM      71  67  87 SW7       30.21R
SPENCER        CLOUDY    71  68  90 S3        30.19R
STORM LAKE *   CLOUDY    70  68  94 S5        30.20S
$$

IAZ055>058-069>071-079>083-090>094-300400-
   SOUTHWEST IOWA

CITY           SKY/WX    TMP DP  RH WIND       PRES   REMARKS
ATLANTIC *     LGT RAIN  70  68  94 SW5       30.21R
AUDUBON *      LGT RAIN  70  68  94 CALM      30.23R
CLARINDA *       N/A     72  70  94 MISG      30.24R FOG
COUNCIL BLFS * LGT RAIN  70  70 100 W5        30.22S
CRESTON *      LGT RAIN  68  68 100 SE10      30.20F
HARLAN  *      CLOUDY    70  68  94 W9        30.24R
LAMONI         CLOUDY    71  70  96 N9        30.19R
RED OAK *        N/A     72  70  94 W9        30.22R
SHENANDOAH *   LGT RAIN  70 -38   1 NW12G17   30.23R
$$

IAZ047>049-059>061-072>074-084-300400-
   CENTRAL IOWA

CITY           SKY/WX    TMP DP  RH WIND       PRES   REMARKS
AMES           CLOUDY    68  68 100 CALM      30.18R
ANKENY *         N/A    N/A N/A N/A MISG        N/A
BOONE *        CLOUDY    70  68  94 CALM      30.19R
CHARITON *       N/A     73  72  94 MISG      30.18R
DES MOINES     MOCLDY    74  71  91 E6        30.18R
GRINNELL*      MOCLDY    69  68  96 CALM      30.19F
KNOXVILLE *    CLOUDY    72  70  94 SE5G12    30.16S
MARSHALLTOWN   CLOUDY    68  68 100 CALM      30.18R
NEWTON *       CLOUDY    72  72 100 SE3       30.18F
PELLA *        MOCLDY    71  66  83 SE3       30.17F
PERRY *          N/A     69  69 100 CALM      30.20R
$$

IAZ004>006-015-016-023>025-035-036-300400-
   NORTH CENTRAL IOWA

CITY           SKY/WX    TMP DP  RH WIND       PRES   REMARKS
ALGONA *       PTCLDY    70  70 100 S6        30.20R
ESTHERVILLE    CLOUDY    68  68 100 S5        30.19R
FORT DODGE *   CLOUDY    70  64  83 SW5       30.21R
MASON CITY     CLOUDY    68  67  96 SW3       30.20R
FOREST CITY *    N/A    N/A N/A N/A MISG        N/A
WEBSTER CITY * CLOUDY    68  68 100 CALM      30.18R
IOWA FALLS *     N/A     68  67  94 CALM      30.20R
$$

IAZ007>011-017>019-026>030-037>042-050>054-066-300400-
   NORTHEAST IOWA

CITY           SKY/WX    TMP DP  RH WIND       PRES   REMARKS
CEDAR RAPIDS   LGT RAIN  73  73 100 CALM      30.17S
CHARLES CITY * MOCLDY    70  70 100 S5        30.18S FOG
CLINTON *      PTCLDY    70  69  97 E3        30.18S
DECORAH *      CLOUDY    72  72 100 CALM      30.18S FOG
DUBUQUE        PTCLDY    69  66  90 S7        30.20R
MONTICELLO *   CLOUDY    72  70  94 CALM      30.18S
OELWEIN *      CLOUDY    70  68  94 E5        30.19R
WATERLOO       CLOUDY    71  67  87 S6        30.17R
$$

IAZ064-065-067-068-078-300400-
   EAST CENTRAL IOWA

CITY           SKY/WX    TMP DP  RH WIND       PRES   REMARKS
DAVENPORT      CLOUDY    71  70  96 CALM      30.17F FOG
IOWA CITY      CLOUDY    73  70  90 N5        30.18F
MT. PLEASANT * LGT RAIN  75  75 100 N6        30.17F
QUAD CITIES    CLOUDY    74  71  91 E7        30.16S
$$

IAZ062-063-075>077-085>089-095>099-300400-
   SOUTHEAST IOWA

CITY           SKY/WX    TMP DP  RH WIND       PRES   REMARKS
BURLINGTON     CLOUDY    74  72  93 CALM      30.16S
FAIRFIELD *    CLOUDY    70  66  88 NW5       30.16F
FORT MADISON * MOCLDY    72  70  94 CALM      30.17S
KEOKUK *       CLEAR     75  73  94 N5        30.16S
OSKALOOSA *    LGT RAIN  68  65  92 S8        30.15F
CENTERVILLE *    N/A     72  68  88 NE7       30.20R
OTTUMWA        LGT RAIN  69  66  90 E3        30.15F
WASHINGTON *   CLOUDY    73  72  94 CALM      30.18F
$$

ABBREVIATIONS USED IN REMARKS
   TC - TEMPERATURES IN CELSIUS
  WCI - WIND CHILL INDEX
   HX - HEAT INDEX
  VSB - VISIBILITY
$$





USA.gov is the U.S. government's official web portal to all federal, state and local government web resources and services.